Year,Month,Day,Hour,Minute,Value (Times are PST for temperature in C)
2016,08,11,00,00,16.00
2016,08,11,00,01,15.90
2016,08,11,00,02,15.90
2016,08,11,00,03,15.90
2016,08,11,00,04,15.90
2016,08,11,00,05,15.80
2016,08,11,00,06,15.80
2016,08,11,00,07,15.80
2016,08,11,00,08,15.80
2016,08,11,00,09,15.70
2016,08,11,00,10,15.70
2016,08,11,00,11,15.70
2016,08,11,00,12,15.70
2016,08,11,00,13,15.70
2016,08,11,00,14,15.70
2016,08,11,00,15,15.70
2016,08,11,00,16,15.60
2016,08,11,00,17,15.60
2016,08,11,00,18,15.60
2016,08,11,00,19,15.60
2016,08,11,00,20,15.60
2016,08,11,00,21,15.60
2016,08,11,00,22,15.60
2016,08,11,00,23,15.60
2016,08,11,00,24,15.60
2016,08,11,00,25,15.60
2016,08,11,00,26,15.60
2016,08,11,00,27,15.60
2016,08,11,00,28,15.60
2016,08,11,00,29,15.60
2016,08,11,00,30,15.50
2016,08,11,00,31,15.50
2016,08,11,00,32,15.50
2016,08,11,00,33,15.50
2016,08,11,00,34,15.50
2016,08,11,00,35,15.40
2016,08,11,00,36,15.40
2016,08,11,00,37,15.40
2016,08,11,00,38,15.40
2016,08,11,00,39,15.40
2016,08,11,00,40,15.40
2016,08,11,00,41,15.40
2016,08,11,00,42,15.40
2016,08,11,00,43,15.40
2016,08,11,00,44,15.40
2016,08,11,00,45,15.40
2016,08,11,00,46,15.40
2016,08,11,00,47,15.40
2016,08,11,00,48,15.40
2016,08,11,00,49,15.50
2016,08,11,00,50,15.50
2016,08,11,00,51,15.40
2016,08,11,00,52,15.40
2016,08,11,00,53,15.40
2016,08,11,00,54,15.40
2016,08,11,00,55,15.40
2016,08,11,00,56,15.40
2016,08,11,00,57,15.30
2016,08,11,00,58,15.30
2016,08,11,00,59,15.30
2016,08,11,01,00,15.30
2016,08,11,01,01,15.30
2016,08,11,01,02,15.30
2016,08,11,01,03,15.30
2016,08,11,01,04,15.20
2016,08,11,01,05,15.20
2016,08,11,01,06,15.20
2016,08,11,01,07,15.20
2016,08,11,01,08,15.20
2016,08,11,01,09,15.20
2016,08,11,01,10,15.20
2016,08,11,01,11,15.20
2016,08,11,01,12,15.20
2016,08,11,01,13,15.20
2016,08,11,01,14,15.20
2016,08,11,01,15,15.20
2016,08,11,01,16,15.20
2016,08,11,01,17,15.20
2016,08,11,01,18,15.30
2016,08,11,01,19,15.30
2016,08,11,01,20,15.30
2016,08,11,01,21,15.30
2016,08,11,01,22,15.30
2016,08,11,01,23,15.30
2016,08,11,01,24,15.30
2016,08,11,01,25,15.30
2016,08,11,01,26,15.30
2016,08,11,01,27,15.30
2016,08,11,01,28,15.40
2016,08,11,01,29,15.40
2016,08,11,01,30,15.40
2016,08,11,01,31,15.40
2016,08,11,01,32,15.40
2016,08,11,01,33,15.40
2016,08,11,01,34,15.40
2016,08,11,01,35,15.40
2016,08,11,01,36,15.40
2016,08,11,01,37,15.50
2016,08,11,01,38,15.50
2016,08,11,01,39,15.50
2016,08,11,01,40,15.50
2016,08,11,01,41,15.40
2016,08,11,01,42,15.40
2016,08,11,01,43,15.40
2016,08,11,01,44,15.40
2016,08,11,01,45,15.40
2016,08,11,01,46,15.40
2016,08,11,01,47,15.40
2016,08,11,01,48,15.30
2016,08,11,01,49,15.30
2016,08,11,01,50,15.30
2016,08,11,01,51,15.30
2016,08,11,01,52,15.30
2016,08,11,01,53,15.30
2016,08,11,01,54,15.30
2016,08,11,01,55,15.30
2016,08,11,01,56,15.30
2016,08,11,01,57,15.30
2016,08,11,01,58,15.30
2016,08,11,01,59,15.30
2016,08,11,02,00,15.30
2016,08,11,02,01,15.20
2016,08,11,02,02,15.20
2016,08,11,02,03,15.20
2016,08,11,02,04,15.20
2016,08,11,02,05,15.20
2016,08,11,02,06,15.20
2016,08,11,02,07,15.20
2016,08,11,02,08,15.20
2016,08,11,02,09,15.20
2016,08,11,02,10,15.20
2016,08,11,02,11,15.20
2016,08,11,02,12,15.20
2016,08,11,02,13,15.20
2016,08,11,02,14,15.20
2016,08,11,02,15,15.20
2016,08,11,02,16,15.10
2016,08,11,02,17,15.10
2016,08,11,02,18,15.10
2016,08,11,02,19,15.10
2016,08,11,02,20,15.10
2016,08,11,02,21,15.10
2016,08,11,02,22,15.00
2016,08,11,02,23,15.00
2016,08,11,02,24,15.00
2016,08,11,02,25,14.90
2016,08,11,02,26,14.90
2016,08,11,02,27,14.90
2016,08,11,02,28,14.90
2016,08,11,02,29,14.90
2016,08,11,02,30,14.90
2016,08,11,02,31,14.90
2016,08,11,02,32,14.90
2016,08,11,02,33,14.90
2016,08,11,02,34,14.80
2016,08,11,02,35,14.80
2016,08,11,02,36,14.80
2016,08,11,02,37,14.80
2016,08,11,02,38,14.80
2016,08,11,02,39,14.80
2016,08,11,02,40,14.80
2016,08,11,02,41,14.80
2016,08,11,02,42,14.80
2016,08,11,02,43,14.80
2016,08,11,02,44,14.70
2016,08,11,02,45,14.70
2016,08,11,02,46,14.70
2016,08,11,02,47,14.70
2016,08,11,02,48,14.70
2016,08,11,02,49,14.70
2016,08,11,02,50,14.60
2016,08,11,02,51,14.60
2016,08,11,02,52,14.60
2016,08,11,02,53,14.60
2016,08,11,02,54,14.60
2016,08,11,02,55,14.60
2016,08,11,02,56,14.60
2016,08,11,02,57,14.60
2016,08,11,02,58,14.60
2016,08,11,02,59,14.60
2016,08,11,03,00,14.60
2016,08,11,03,01,14.50
2016,08,11,03,02,14.50
2016,08,11,03,03,14.50
2016,08,11,03,04,14.50
2016,08,11,03,05,14.50
2016,08,11,03,06,14.50
2016,08,11,03,07,14.50
2016,08,11,03,08,14.50
2016,08,11,03,09,14.50
2016,08,11,03,10,14.40
2016,08,11,03,11,14.40
2016,08,11,03,12,14.40
2016,08,11,03,13,14.40
2016,08,11,03,14,14.40
2016,08,11,03,15,14.40
2016,08,11,03,16,14.40
2016,08,11,03,17,14.40
2016,08,11,03,18,14.30
2016,08,11,03,19,14.30
2016,08,11,03,20,14.30
2016,08,11,03,21,14.30
2016,08,11,03,22,14.30
2016,08,11,03,23,14.30
2016,08,11,03,24,14.30
2016,08,11,03,25,14.30
2016,08,11,03,26,14.30
2016,08,11,03,27,14.30
2016,08,11,03,28,14.30
2016,08,11,03,29,14.30
2016,08,11,03,30,14.20
2016,08,11,03,31,14.20
2016,08,11,03,32,14.20
2016,08,11,03,33,14.20
2016,08,11,03,34,14.20
2016,08,11,03,35,14.20
2016,08,11,03,36,14.10
2016,08,11,03,37,14.10
2016,08,11,03,38,14.10
2016,08,11,03,39,14.10
2016,08,11,03,40,14.10
2016,08,11,03,41,14.00
2016,08,11,03,42,14.00
2016,08,11,03,43,14.00
2016,08,11,03,44,13.90
2016,08,11,03,45,13.90
2016,08,11,03,46,13.90
2016,08,11,03,47,13.90
2016,08,11,03,48,13.90
2016,08,11,03,49,13.80
2016,08,11,03,50,13.80
2016,08,11,03,51,13.80
2016,08,11,03,52,13.80
2016,08,11,03,53,13.80
2016,08,11,03,54,13.80
2016,08,11,03,55,13.70
2016,08,11,03,56,13.70
2016,08,11,03,57,13.70
2016,08,11,03,58,13.70
2016,08,11,03,59,13.70
2016,08,11,04,00,13.70
2016,08,11,04,01,13.70
2016,08,11,04,02,13.70
2016,08,11,04,03,13.70
2016,08,11,04,04,13.70
2016,08,11,04,05,13.70
2016,08,11,04,06,13.70
2016,08,11,04,07,13.60
2016,08,11,04,08,13.60
2016,08,11,04,09,13.60
2016,08,11,04,10,13.60
2016,08,11,04,11,13.60
2016,08,11,04,12,13.60
2016,08,11,04,13,13.60
2016,08,11,04,14,13.60
2016,08,11,04,15,13.60
2016,08,11,04,16,13.60
2016,08,11,04,17,13.60
2016,08,11,04,18,13.60
2016,08,11,04,19,13.60
2016,08,11,04,20,13.50
2016,08,11,04,21,13.50
2016,08,11,04,22,13.50
2016,08,11,04,23,13.40
2016,08,11,04,24,13.40
2016,08,11,04,25,13.40
2016,08,11,04,26,13.40
2016,08,11,04,27,13.40
2016,08,11,04,28,13.40
2016,08,11,04,29,13.40
2016,08,11,04,30,13.40
2016,08,11,04,31,13.40
2016,08,11,04,32,13.40
2016,08,11,04,33,13.40
2016,08,11,04,34,13.40
2016,08,11,04,35,13.40
2016,08,11,04,36,13.40
2016,08,11,04,37,13.40
2016,08,11,04,38,13.40
2016,08,11,04,39,13.40
2016,08,11,04,40,13.40
2016,08,11,04,41,13.40
2016,08,11,04,42,13.30
2016,08,11,04,43,13.30
2016,08,11,04,44,13.30
2016,08,11,04,45,13.30
2016,08,11,04,46,13.30
2016,08,11,04,47,13.30
2016,08,11,04,48,13.30
2016,08,11,04,49,13.30
2016,08,11,04,50,13.30
2016,08,11,04,51,13.30
2016,08,11,04,52,13.30
2016,08,11,04,53,13.30
2016,08,11,04,54,13.20
2016,08,11,04,55,13.20
2016,08,11,04,56,13.20
2016,08,11,04,57,13.20
2016,08,11,04,58,13.20
2016,08,11,04,59,13.20
2016,08,11,05,00,13.20
2016,08,11,05,01,13.20
2016,08,11,05,02,13.10
2016,08,11,05,03,13.10
2016,08,11,05,04,13.10
2016,08,11,05,05,13.10
2016,08,11,05,06,13.10
2016,08,11,05,07,13.10
2016,08,11,05,08,13.00
2016,08,11,05,09,13.00
2016,08,11,05,10,13.00
2016,08,11,05,11,13.00
2016,08,11,05,12,13.00
2016,08,11,05,13,12.90
2016,08,11,05,14,12.90
2016,08,11,05,15,12.90
2016,08,11,05,16,12.90
2016,08,11,05,17,12.90
2016,08,11,05,18,12.90
2016,08,11,05,19,12.90
2016,08,11,05,20,12.90
2016,08,11,05,21,12.90
2016,08,11,05,22,12.90
2016,08,11,05,23,12.80
2016,08,11,05,24,12.80
2016,08,11,05,25,12.80
2016,08,11,05,26,12.80
2016,08,11,05,27,12.80
2016,08,11,05,28,12.80
2016,08,11,05,29,12.80
2016,08,11,05,30,12.80
2016,08,11,05,31,12.80
2016,08,11,05,32,12.80
2016,08,11,05,33,12.80
2016,08,11,05,34,12.80
2016,08,11,05,35,12.80
2016,08,11,05,36,12.80
2016,08,11,05,37,12.80
2016,08,11,05,38,12.80
2016,08,11,05,39,12.80
2016,08,11,05,40,12.80
2016,08,11,05,41,12.90
2016,08,11,05,42,12.90
2016,08,11,05,43,12.90
2016,08,11,05,44,12.90
2016,08,11,05,45,12.80
2016,08,11,05,46,12.80
2016,08,11,05,47,12.80
2016,08,11,05,48,12.80
2016,08,11,05,49,12.80
2016,08,11,05,50,12.80
2016,08,11,05,51,12.80
2016,08,11,05,52,12.80
2016,08,11,05,53,12.80
2016,08,11,05,54,12.70
2016,08,11,05,55,12.80
2016,08,11,05,56,12.80
2016,08,11,05,57,12.80
2016,08,11,05,58,12.80
2016,08,11,05,59,12.80
2016,08,11,06,00,12.80
2016,08,11,06,01,12.80
2016,08,11,06,02,12.80
2016,08,11,06,03,12.80
2016,08,11,06,04,12.80
2016,08,11,06,05,12.80
2016,08,11,06,06,12.80
2016,08,11,06,07,12.80
2016,08,11,06,08,12.80
2016,08,11,06,09,12.70
2016,08,11,06,10,12.70
2016,08,11,06,11,12.70
2016,08,11,06,12,12.70
2016,08,11,06,13,12.70
2016,08,11,06,14,12.70
2016,08,11,06,15,12.70
2016,08,11,06,16,12.70
2016,08,11,06,17,12.70
2016,08,11,06,18,12.70
2016,08,11,06,19,12.70
2016,08,11,06,20,12.70
2016,08,11,06,21,12.70
2016,08,11,06,22,12.70
2016,08,11,06,23,12.60
2016,08,11,06,24,12.60
2016,08,11,06,25,12.60
2016,08,11,06,26,12.70
2016,08,11,06,27,12.70
2016,08,11,06,28,12.70
2016,08,11,06,29,12.70
2016,08,11,06,30,12.70
2016,08,11,06,31,12.70
2016,08,11,06,32,12.70
2016,08,11,06,33,12.70
2016,08,11,06,34,12.70
2016,08,11,06,35,12.70
2016,08,11,06,36,12.70
2016,08,11,06,37,12.70
2016,08,11,06,38,12.70
2016,08,11,06,39,12.70
2016,08,11,06,40,12.70
2016,08,11,06,41,12.70
2016,08,11,06,42,12.80
2016,08,11,06,43,12.80
2016,08,11,06,44,12.80
2016,08,11,06,45,12.80
2016,08,11,06,46,12.80
2016,08,11,06,47,12.80
2016,08,11,06,48,12.80
2016,08,11,06,49,12.80
2016,08,11,06,50,12.90
2016,08,11,06,51,12.90
2016,08,11,06,52,12.90
2016,08,11,06,53,12.90
2016,08,11,06,54,13.00
2016,08,11,06,55,13.10
2016,08,11,06,56,13.10
2016,08,11,06,57,13.10
2016,08,11,06,58,13.20
2016,08,11,06,59,13.20
2016,08,11,07,00,13.30
2016,08,11,07,01,13.40
2016,08,11,07,02,13.50
2016,08,11,07,03,13.60
2016,08,11,07,04,13.70
2016,08,11,07,05,13.70
2016,08,11,07,06,13.80
2016,08,11,07,07,13.80
2016,08,11,07,08,13.90
2016,08,11,07,09,13.90
2016,08,11,07,10,14.00
2016,08,11,07,11,14.10
2016,08,11,07,12,14.10
2016,08,11,07,13,14.20
2016,08,11,07,14,14.30
2016,08,11,07,15,14.40
2016,08,11,07,16,14.50
2016,08,11,07,17,14.60
2016,08,11,07,18,14.70
2016,08,11,07,19,14.80
2016,08,11,07,20,14.90
2016,08,11,07,21,15.00
2016,08,11,07,22,15.00
2016,08,11,07,23,15.00
2016,08,11,07,24,15.00
2016,08,11,07,25,15.00
2016,08,11,07,26,15.00
2016,08,11,07,27,15.10
2016,08,11,07,28,15.10
2016,08,11,07,29,15.20
2016,08,11,07,30,15.20
2016,08,11,07,31,15.30
2016,08,11,07,32,15.30
2016,08,11,07,33,15.40
2016,08,11,07,34,15.40
2016,08,11,07,35,15.50
2016,08,11,07,36,15.60
2016,08,11,07,37,15.70
2016,08,11,07,38,15.70
2016,08,11,07,39,15.80
2016,08,11,07,40,15.80
2016,08,11,07,41,15.80
2016,08,11,07,42,15.80
2016,08,11,07,43,15.90
2016,08,11,07,44,15.90
2016,08,11,07,45,15.90
2016,08,11,07,46,15.90
2016,08,11,07,47,16.00
2016,08,11,07,48,16.10
2016,08,11,07,49,16.20
2016,08,11,07,50,16.20
2016,08,11,07,51,16.30
2016,08,11,07,52,16.40
2016,08,11,07,53,16.50
2016,08,11,07,54,16.50
2016,08,11,07,55,16.60
2016,08,11,07,56,16.60
2016,08,11,07,57,16.70
2016,08,11,07,58,16.80
2016,08,11,07,59,16.80
2016,08,11,08,00,16.90
2016,08,11,08,01,17.00
2016,08,11,08,02,17.10
2016,08,11,08,03,17.20
2016,08,11,08,04,17.30
2016,08,11,08,05,17.40
2016,08,11,08,06,17.60
2016,08,11,08,07,17.70
2016,08,11,08,08,17.70
2016,08,11,08,09,17.80
2016,08,11,08,10,17.80
2016,08,11,08,11,17.90
2016,08,11,08,12,17.90
2016,08,11,08,13,18.00
2016,08,11,08,14,18.10
2016,08,11,08,15,18.20
2016,08,11,08,16,18.10
2016,08,11,08,17,18.20
2016,08,11,08,18,18.20
2016,08,11,08,19,18.20
2016,08,11,08,20,18.20
2016,08,11,08,21,18.20
2016,08,11,08,22,18.30
2016,08,11,08,23,18.40
2016,08,11,08,24,18.50
2016,08,11,08,25,18.50
2016,08,11,08,26,18.60
2016,08,11,08,27,18.60
2016,08,11,08,28,18.70
2016,08,11,08,29,18.80
2016,08,11,08,30,18.90
2016,08,11,08,31,19.00
2016,08,11,08,32,19.10
2016,08,11,08,33,19.10
2016,08,11,08,34,19.20
2016,08,11,08,35,19.30
2016,08,11,08,36,19.40
2016,08,11,08,37,19.40
2016,08,11,08,38,19.40
2016,08,11,08,39,19.40
2016,08,11,08,40,19.30
2016,08,11,08,41,19.30
2016,08,11,08,42,19.30
2016,08,11,08,43,19.30
2016,08,11,08,44,19.30
2016,08,11,08,45,19.30
2016,08,11,08,46,19.20
2016,08,11,08,47,19.20
2016,08,11,08,48,19.30
2016,08,11,08,49,19.30
2016,08,11,08,50,19.40
2016,08,11,08,51,19.40
2016,08,11,08,52,19.40
2016,08,11,08,53,19.40
2016,08,11,08,54,19.40
2016,08,11,08,55,19.40
2016,08,11,08,56,19.40
2016,08,11,08,57,19.40
2016,08,11,08,58,19.40
2016,08,11,08,59,19.50
2016,08,11,09,00,19.40
2016,08,11,09,01,19.40
2016,08,11,09,02,19.50
2016,08,11,09,03,19.60
2016,08,11,09,04,19.70
2016,08,11,09,05,19.70
2016,08,11,09,06,19.60
2016,08,11,09,07,19.60
2016,08,11,09,08,19.70
2016,08,11,09,09,19.80
2016,08,11,09,10,19.90
2016,08,11,09,11,20.00
2016,08,11,09,12,20.10
2016,08,11,09,13,20.00
2016,08,11,09,14,20.00
2016,08,11,09,15,20.00
2016,08,11,09,16,20.00
2016,08,11,09,17,20.00
2016,08,11,09,18,20.10
2016,08,11,09,19,20.10
2016,08,11,09,20,20.20
2016,08,11,09,21,20.20
2016,08,11,09,22,20.20
2016,08,11,09,23,20.20
2016,08,11,09,24,20.30
2016,08,11,09,25,20.40
2016,08,11,09,26,20.60
2016,08,11,09,27,20.70
2016,08,11,09,28,20.90
2016,08,11,09,29,20.90
2016,08,11,09,30,21.00
2016,08,11,09,31,21.10
2016,08,11,09,32,21.10
2016,08,11,09,33,21.20
2016,08,11,09,34,21.30
2016,08,11,09,35,21.30
2016,08,11,09,36,21.20
2016,08,11,09,37,21.10
2016,08,11,09,38,21.20
2016,08,11,09,39,21.20
2016,08,11,09,40,21.30
2016,08,11,09,41,21.30
2016,08,11,09,42,21.30
2016,08,11,09,43,21.30
2016,08,11,09,44,21.40
2016,08,11,09,45,21.40
2016,08,11,09,46,21.40
2016,08,11,09,47,21.40
2016,08,11,09,48,21.40
2016,08,11,09,49,21.40
2016,08,11,09,50,21.40
2016,08,11,09,51,21.50
2016,08,11,09,52,21.50
2016,08,11,09,53,21.50
2016,08,11,09,54,21.50
2016,08,11,09,55,21.50
2016,08,11,09,56,21.50
2016,08,11,09,57,21.70
2016,08,11,09,58,21.70
2016,08,11,09,59,21.70
2016,08,11,10,00,21.70
2016,08,11,10,01,21.70
2016,08,11,10,02,21.80
2016,08,11,10,03,21.90
2016,08,11,10,04,21.90
2016,08,11,10,05,21.90
2016,08,11,10,06,21.90
2016,08,11,10,07,21.90
2016,08,11,10,08,21.90
2016,08,11,10,09,21.80
2016,08,11,10,10,21.70
2016,08,11,10,11,21.70
2016,08,11,10,12,21.70
2016,08,11,10,13,21.70
2016,08,11,10,14,21.80
2016,08,11,10,15,21.90
2016,08,11,10,16,21.90
2016,08,11,10,17,21.90
2016,08,11,10,18,22.00
2016,08,11,10,19,22.00
2016,08,11,10,20,22.10
2016,08,11,10,21,22.10
2016,08,11,10,22,22.10
2016,08,11,10,23,22.20
2016,08,11,10,24,22.30
2016,08,11,10,25,22.20
2016,08,11,10,26,22.10
2016,08,11,10,27,22.00
2016,08,11,10,28,21.90
2016,08,11,10,29,22.00
2016,08,11,10,30,22.10
2016,08,11,10,31,22.20
2016,08,11,10,32,22.40
2016,08,11,10,33,22.50
2016,08,11,10,34,22.60
2016,08,11,10,35,22.60
2016,08,11,10,36,22.60
2016,08,11,10,37,22.70
2016,08,11,10,38,22.70
2016,08,11,10,39,22.70
2016,08,11,10,40,22.70
2016,08,11,10,41,22.70
2016,08,11,10,42,22.70
2016,08,11,10,43,22.80
2016,08,11,10,44,22.60
2016,08,11,10,45,22.40
2016,08,11,10,46,22.30
2016,08,11,10,47,22.30
2016,08,11,10,48,22.30
2016,08,11,10,49,22.40
2016,08,11,10,50,22.40
2016,08,11,10,51,22.30
2016,08,11,10,52,22.30
2016,08,11,10,53,22.30
2016,08,11,10,54,22.30
2016,08,11,10,55,22.40
2016,08,11,10,56,22.50
2016,08,11,10,57,22.50
2016,08,11,10,58,22.40
2016,08,11,10,59,22.30
2016,08,11,11,00,22.40
2016,08,11,11,01,22.40
2016,08,11,11,02,22.50
2016,08,11,11,03,22.50
2016,08,11,11,04,22.60
2016,08,11,11,05,22.60
2016,08,11,11,06,22.40
2016,08,11,11,07,22.40
2016,08,11,11,08,22.40
2016,08,11,11,09,22.40
2016,08,11,11,10,22.50
2016,08,11,11,11,22.60
2016,08,11,11,12,22.70
2016,08,11,11,13,22.70
2016,08,11,11,14,22.70
2016,08,11,11,15,22.80
2016,08,11,11,16,23.00
2016,08,11,11,17,23.10
2016,08,11,11,18,23.30
2016,08,11,11,19,23.50
2016,08,11,11,20,23.50
2016,08,11,11,21,23.30
2016,08,11,11,22,23.30
2016,08,11,11,23,23.30
2016,08,11,11,24,23.20
2016,08,11,11,25,23.00
2016,08,11,11,26,22.90
2016,08,11,11,27,22.80
2016,08,11,11,28,22.70
2016,08,11,11,29,22.70
2016,08,11,11,30,22.80
2016,08,11,11,31,22.80
2016,08,11,11,32,22.80
2016,08,11,11,33,22.80
2016,08,11,11,34,22.80
2016,08,11,11,35,22.80
2016,08,11,11,36,22.90
2016,08,11,11,37,23.00
2016,08,11,11,38,23.00
2016,08,11,11,39,22.90
2016,08,11,11,40,22.90
2016,08,11,11,41,23.00
2016,08,11,11,42,23.10
2016,08,11,11,43,23.20
2016,08,11,11,44,23.30
2016,08,11,11,45,23.40
2016,08,11,11,46,23.40
2016,08,11,11,47,23.40
2016,08,11,11,48,23.30
2016,08,11,11,49,23.30
2016,08,11,11,50,23.30
2016,08,11,11,51,23.30
2016,08,11,11,52,23.40
2016,08,11,11,53,23.40
2016,08,11,11,54,23.50
2016,08,11,11,55,23.50
2016,08,11,11,56,23.60
2016,08,11,11,57,23.70
2016,08,11,11,58,23.80
2016,08,11,11,59,23.80
2016,08,11,12,00,23.80
2016,08,11,12,01,23.70
2016,08,11,12,02,23.70
2016,08,11,12,03,23.60
2016,08,11,12,04,23.40
2016,08,11,12,05,23.20
2016,08,11,12,06,23.20
2016,08,11,12,07,23.20
2016,08,11,12,08,23.30
2016,08,11,12,09,23.30
2016,08,11,12,10,23.40
2016,08,11,12,11,23.40
2016,08,11,12,12,23.50
2016,08,11,12,13,23.60
2016,08,11,12,14,23.50
2016,08,11,12,15,23.30
2016,08,11,12,16,23.30
2016,08,11,12,17,23.30
2016,08,11,12,18,23.30
2016,08,11,12,19,23.20
2016,08,11,12,20,23.00
2016,08,11,12,21,22.90
2016,08,11,12,22,22.80
2016,08,11,12,23,22.80
2016,08,11,12,24,22.90
2016,08,11,12,25,22.90
2016,08,11,12,26,23.00
2016,08,11,12,27,23.10
2016,08,11,12,28,23.10
2016,08,11,12,29,23.10
2016,08,11,12,30,23.10
2016,08,11,12,31,23.10
2016,08,11,12,32,23.00
2016,08,11,12,33,23.10
2016,08,11,12,34,23.10
2016,08,11,12,35,23.10
2016,08,11,12,36,23.20
2016,08,11,12,37,23.10
2016,08,11,12,38,23.10
2016,08,11,12,39,23.00
2016,08,11,12,40,22.90
2016,08,11,12,41,23.00
2016,08,11,12,42,23.10
2016,08,11,12,43,23.30
2016,08,11,12,44,23.40
2016,08,11,12,45,23.50
2016,08,11,12,46,23.60
2016,08,11,12,47,23.60
2016,08,11,12,48,23.70
2016,08,11,12,49,23.80
2016,08,11,12,50,23.80
2016,08,11,12,51,23.80
2016,08,11,12,52,23.60
2016,08,11,12,53,23.50
2016,08,11,12,54,23.40
2016,08,11,12,55,23.40
2016,08,11,12,56,23.50
2016,08,11,12,57,23.60
2016,08,11,12,58,23.70
2016,08,11,12,59,23.50
2016,08,11,13,00,23.40
2016,08,11,13,01,23.30
2016,08,11,13,02,23.20
2016,08,11,13,03,23.20
2016,08,11,13,04,23.30
2016,08,11,13,05,23.50
2016,08,11,13,06,23.60
2016,08,11,13,07,23.70
2016,08,11,13,08,23.80
2016,08,11,13,09,23.90
2016,08,11,13,10,23.90
2016,08,11,13,11,23.90
2016,08,11,13,12,24.00
2016,08,11,13,13,24.10
2016,08,11,13,14,24.10
2016,08,11,13,15,24.20
2016,08,11,13,16,24.30
2016,08,11,13,17,24.30
2016,08,11,13,18,24.40
2016,08,11,13,19,24.50
2016,08,11,13,20,24.60
2016,08,11,13,21,24.60
2016,08,11,13,22,24.50
2016,08,11,13,23,24.40
2016,08,11,13,24,24.30
2016,08,11,13,25,24.20
2016,08,11,13,26,24.20
2016,08,11,13,27,24.20
2016,08,11,13,28,24.20
2016,08,11,13,29,24.20
2016,08,11,13,30,24.30
2016,08,11,13,31,24.30
2016,08,11,13,32,24.40
2016,08,11,13,33,24.30
2016,08,11,13,34,24.40
2016,08,11,13,35,24.50
2016,08,11,13,36,24.60
2016,08,11,13,37,24.70
2016,08,11,13,38,24.70
2016,08,11,13,39,24.80
2016,08,11,13,40,24.70
2016,08,11,13,41,24.80
2016,08,11,13,42,24.90
2016,08,11,13,43,24.90
2016,08,11,13,44,24.90
2016,08,11,13,45,24.90
2016,08,11,13,46,24.90
2016,08,11,13,47,24.90
2016,08,11,13,48,24.90
2016,08,11,13,49,25.10
2016,08,11,13,50,25.20
2016,08,11,13,51,25.20
2016,08,11,13,52,25.30
2016,08,11,13,53,25.30
2016,08,11,13,54,25.30
2016,08,11,13,55,25.30
2016,08,11,13,56,25.30
2016,08,11,13,57,25.30
2016,08,11,13,58,25.40
2016,08,11,13,59,25.40
2016,08,11,14,00,25.40
2016,08,11,14,01,25.40
2016,08,11,14,02,25.50
2016,08,11,14,03,25.60
2016,08,11,14,04,25.60
2016,08,11,14,05,25.50
2016,08,11,14,06,25.40
2016,08,11,14,07,25.30
2016,08,11,14,08,25.20
2016,08,11,14,09,25.00
2016,08,11,14,10,24.90
2016,08,11,14,11,24.90
2016,08,11,14,12,24.80
2016,08,11,14,13,24.80
2016,08,11,14,14,24.80
2016,08,11,14,15,24.70
2016,08,11,14,16,24.50
2016,08,11,14,17,24.40
2016,08,11,14,18,24.30
2016,08,11,14,19,24.20
2016,08,11,14,20,24.10
2016,08,11,14,21,24.00
2016,08,11,14,22,23.80
2016,08,11,14,23,23.70
2016,08,11,14,24,23.80
2016,08,11,14,25,23.90
2016,08,11,14,26,24.00
2016,08,11,14,27,24.00
2016,08,11,14,28,24.00
2016,08,11,14,29,24.00
2016,08,11,14,30,24.00
2016,08,11,14,31,23.90
2016,08,11,14,32,23.90
2016,08,11,14,33,24.00
2016,08,11,14,34,24.10
2016,08,11,14,35,24.10
2016,08,11,14,36,24.10
2016,08,11,14,37,24.00
2016,08,11,14,38,23.90
2016,08,11,14,39,23.80
2016,08,11,14,40,23.80
2016,08,11,14,41,23.80
2016,08,11,14,42,23.80
2016,08,11,14,43,23.80
2016,08,11,14,44,23.70
2016,08,11,14,45,23.60
2016,08,11,14,46,23.60
2016,08,11,14,47,23.60
2016,08,11,14,48,23.60
2016,08,11,14,49,23.70
2016,08,11,14,50,23.90
2016,08,11,14,51,24.10
2016,08,11,14,52,24.30
2016,08,11,14,53,24.40
2016,08,11,14,54,24.50
2016,08,11,14,55,24.50
2016,08,11,14,56,24.50
2016,08,11,14,57,24.40
2016,08,11,14,58,24.30
2016,08,11,14,59,24.20
2016,08,11,15,00,24.20
2016,08,11,15,01,24.10
2016,08,11,15,02,24.00
2016,08,11,15,03,23.90
2016,08,11,15,04,24.00
2016,08,11,15,05,24.00
2016,08,11,15,06,24.10
2016,08,11,15,07,24.30
2016,08,11,15,08,24.40
2016,08,11,15,09,24.40
2016,08,11,15,10,24.40
2016,08,11,15,11,24.40
2016,08,11,15,12,24.40
2016,08,11,15,13,24.50
2016,08,11,15,14,24.60
2016,08,11,15,15,24.70
2016,08,11,15,16,24.70
2016,08,11,15,17,24.80
2016,08,11,15,18,24.80
2016,08,11,15,19,24.70
2016,08,11,15,20,24.70
2016,08,11,15,21,24.60
2016,08,11,15,22,24.50
2016,08,11,15,23,24.50
2016,08,11,15,24,24.60
2016,08,11,15,25,24.50
2016,08,11,15,26,24.50
2016,08,11,15,27,24.50
2016,08,11,15,28,24.50
2016,08,11,15,29,24.60
2016,08,11,15,30,24.70
2016,08,11,15,31,24.60
2016,08,11,15,32,24.60
2016,08,11,15,33,24.50
2016,08,11,15,34,24.40
2016,08,11,15,35,24.40
2016,08,11,15,36,24.30
2016,08,11,15,37,24.30
2016,08,11,15,38,24.30
2016,08,11,15,39,24.40
2016,08,11,15,40,24.40
2016,08,11,15,41,24.50
2016,08,11,15,42,24.60
2016,08,11,15,43,24.50
2016,08,11,15,44,24.50
2016,08,11,15,45,24.40
2016,08,11,15,46,24.30
2016,08,11,15,47,24.10
2016,08,11,15,48,24.10
2016,08,11,15,49,24.00
2016,08,11,15,50,24.00
2016,08,11,15,51,24.10
2016,08,11,15,52,24.10
2016,08,11,15,53,24.20
2016,08,11,15,54,24.20
2016,08,11,15,55,24.20
2016,08,11,15,56,24.30
2016,08,11,15,57,24.40
2016,08,11,15,58,24.40
2016,08,11,15,59,24.60
2016,08,11,16,00,24.60
2016,08,11,16,01,24.60
2016,08,11,16,02,24.70
2016,08,11,16,03,24.60
2016,08,11,16,04,24.50
2016,08,11,16,05,24.40
2016,08,11,16,06,24.30
2016,08,11,16,07,24.10
2016,08,11,16,08,24.10
2016,08,11,16,09,24.20
2016,08,11,16,10,24.20
2016,08,11,16,11,24.20
2016,08,11,16,12,24.30
2016,08,11,16,13,24.30
2016,08,11,16,14,24.40
2016,08,11,16,15,24.50
2016,08,11,16,16,24.40
2016,08,11,16,17,24.40
2016,08,11,16,18,24.50
2016,08,11,16,19,24.50
2016,08,11,16,20,24.50
2016,08,11,16,21,24.50
2016,08,11,16,22,24.50
2016,08,11,16,23,24.40
2016,08,11,16,24,24.40
2016,08,11,16,25,24.40
2016,08,11,16,26,24.60
2016,08,11,16,27,24.70
2016,08,11,16,28,24.70
2016,08,11,16,29,24.70
2016,08,11,16,30,24.70
2016,08,11,16,31,24.70
2016,08,11,16,32,24.60
2016,08,11,16,33,24.50
2016,08,11,16,34,24.50
2016,08,11,16,35,24.50
2016,08,11,16,36,24.40
2016,08,11,16,37,24.40
2016,08,11,16,38,24.50
2016,08,11,16,39,24.70
2016,08,11,16,40,24.80
2016,08,11,16,41,24.80
2016,08,11,16,42,24.90
2016,08,11,16,43,24.90
2016,08,11,16,44,24.90
2016,08,11,16,45,25.00
2016,08,11,16,46,25.00
2016,08,11,16,47,24.80
2016,08,11,16,48,24.70
2016,08,11,16,49,24.80
2016,08,11,16,50,24.80
2016,08,11,16,51,24.80
2016,08,11,16,52,24.70
2016,08,11,16,53,24.50
2016,08,11,16,54,24.30
2016,08,11,16,55,24.20
2016,08,11,16,56,24.30
2016,08,11,16,57,24.40
2016,08,11,16,58,24.50
2016,08,11,16,59,24.50
2016,08,11,17,00,24.50
2016,08,11,17,01,24.40
2016,08,11,17,02,24.40
2016,08,11,17,03,24.50
2016,08,11,17,04,24.60
2016,08,11,17,05,24.60
2016,08,11,17,06,24.60
2016,08,11,17,07,24.50
2016,08,11,17,08,24.40
2016,08,11,17,09,24.40
2016,08,11,17,10,24.40
2016,08,11,17,11,24.40
2016,08,11,17,12,24.40
2016,08,11,17,13,24.40
2016,08,11,17,14,24.40
2016,08,11,17,15,24.30
2016,08,11,17,16,24.20
2016,08,11,17,17,24.10
2016,08,11,17,18,24.10
2016,08,11,17,19,24.10